Showing default

POLYTECH UNIVERSE-5, 61745

Orbit data source: Space-Track

POLYTECH UNIVERSE-5, 61745 is a payload satellite owned by Polytech (CIS) in SSO that was launched on Mon, 04 Nov 2024 UTC via a SOYUZ-2-1B launch vehicle from the Vostochny Cosmodrome (VOSTO). Payload-class satellites include a variety of spacecraft equipped with specific instruments for various scientific and technological missions. These include communications satellites like Starlink; space stations such as the ISS; scientific satellites like the Hubble; Earth observation satellites from companies like Planet Labs, Umbra, and HawkEye 360; GPS; miniature CubeSats for education and research; and military/defense satellites.

Loading next visibility...
Identifier
61745, 2024-199L
Orbit
SSO
Country
Flag of CISCIS
Related business
Manufacturer
STTs
Mission
Operational Amateur Science
Bus & Motor
CUBESAT 3U, Unknown motor
Mass
5.07 kg wet, 5.07 kg dry
Launch date (UTC)
2024-11-04 (2 years ago)
Launch vehicle
SOYUZ-2-1B
Launch site
Vostochny Cosmodrome (VOSTO)
Object type
Payload
Rocket body
Debris
Shape & HBR
Box, 0.2 m
Radar Cross Section
0.035 m², Medium (>0.1 m² and < 1m²)

Expand to show TLE details & history
Last TLE update: 6 hours ago

TLE from 6 hours ago
0 POLYTECH UNIVERSE-5
1 61745U 24199L   26264.54076346  .00080645  00000-0  55510-3 0  9995
2 61745  97.2751 145.8520 0001436 204.0424 156.0774 15.74396667152777
Epoch: 2026-09-21T12:58Z
TLE epoch observation values (Epoch: 2026-09-21T12:58:41.962Z)
Latitude
-0.00006°
Longitude
-49.24195°
Altitude
350.399 km
Speed
7.698 km/s
True Right ascension
09h 43m 24s
True Declination
0° 00' 00"
Sunlit
Object was in daylight at epoch
Visualization orbit readout
Latitude
Unknown
Longitude
Unknown
Altitude
Unknown
Speed
Unknown
Apparent Right ascension
Unknown
Apparent Declination
Unknown
Sunlit
N/A
Visualization observer readout
Local Sidereal Time
11:59:24
Azimuth
Unknown
Elevation
Unknown
Doppler factor
Unknown
Orbital elements
Apogee altitude
344.202 km
Perigee altitude
342.271 km
Semi-major axis
6,721.374 km
Eccentricity
0.00014
Inclination
97.2751°
RAAN
145.852°
Arg. of periapsis
204.0424°
True anomaly
156.08407°
Mean anomaly
156.0774°
Eccentric anomaly
156.08074°
Mean motion
3.93873 °/min
Orbital period
91.4 mins
BSTAR
0.0005551
Loading maneuver chart data...
Computing Atmospheric mass density...
Loading historical data...
Loading historical data...
Loading historical data...
Loading historical data...
Loading historical data...
Loading historical data...
Loading historical data...

Documentation

Showing up to 5 results
|